This is the latest recevied weather packets stored in our database for station/object YB3RDW-13. If no packets are shown the sender has not sent any weather packets the latest 10 day(s).
| Time | Temp. | Humidity | Pressure | Rain* | Wind** | Luminosity | Snow |
|---|---|---|---|---|---|---|---|
| 1777519617 | 30.56° C | 81% | 1013 hPa | 0 mm | - | 310 W/m² | - |
| 1777519317 | 30.56° C | 79% | 1013 hPa | 0 mm | - | 330 W/m² | - |
| 1777519017 | 30° C | 80% | 1013 hPa | 0 mm | - | 321 W/m² | - |
| 1777518717 | 30° C | 80% | 1013 hPa | 0 mm | - | 289 W/m² | - |
| 1777518417 | 30° C | 81% | 1013 hPa | 0 mm | - | 250 W/m² | - |
| 1777518118 | 30° C | 83% | 1013 hPa | 0 mm | - | 224 W/m² | - |
| 1777517817 | 30° C | 82% | 1013 hPa | 0 mm | - | 229 W/m² | - |
| 1777517517 | 30° C | 83% | 1013 hPa | 0 mm | - | 170 W/m² | - |
| 1777517217 | 30° C | 84% | 1013 hPa | 0 mm | - | 72 W/m² | - |
| 1777516918 | 30° C | 83% | 1013 hPa | 0 mm | - | 49 W/m² | - |
| 1777516617 | 30° C | 83% | 1013 hPa | 0 mm | - | 76 W/m² | - |
| 1777516317 | 30° C | 82% | 1013 hPa | 0 mm | - | 130 W/m² | - |
| 1777516018 | 30° C | 82% | 1013 hPa | 0 mm | - | 153 W/m² | - |
| 1777515717 | 30° C | 81% | 1013 hPa | 0 mm | - | 150 W/m² | - |
| 1777515418 | 31.11° C | 80% | 1014 hPa | 0 mm | - | 153 W/m² | - |
| 1777515117 | 31.67° C | 78% | 1013 hPa | 0 mm | - | 227 W/m² | - |
| 1777514818 | 31.67° C | 78% | 1013 hPa | 0 mm | - | 484 W/m² | - |
| 1777514517 | 31.11° C | 79% | 1013 hPa | 0 mm | - | 416 W/m² | - |
| 1777514218 | 31.11° C | 79% | 1014 hPa | 0 mm | - | 262 W/m² | - |
| 1777513917 | 31.67° C | 78% | 1014 hPa | 0 mm | - | 247 W/m² | - |
| 1777513618 | 31.67° C | 79% | 1013 hPa | 0 mm | - | 505 W/m² | - |
| 1777513318 | 31.11° C | 79% | 1013 hPa | 0 mm | - | 494 W/m² | - |
| 1777513017 | 31.11° C | 80% | 1013 hPa | 0 mm | - | 435 W/m² | - |
| 1777512717 | 30.56° C | 81% | 1013 hPa | 0 mm | - | 479 W/m² | - |
| 1777512417 | 30° C | 83% | 1013 hPa | 0 mm | - | 505 W/m² | - |
* Rain latest hour (hover to see other rain measurements)
** Current wind speed in m/s (hover to see current wind gust speed)